Iowa City, IA

1:12 PM CST on November 15, 2019 (GMT -0600)
Iowa City Municipal

Weather History for KIOW - August, 2019

Change the Weather History Date:

Thursday, August 1, 2019

  Actual Average Record
Temperature  
Mean Temperature 73 °F 74 °F  
Max Temperature 85 °F 84 °F 102 °F (1987)
Min Temperature 61 °F 65 °F 50 °F (1952)
Degree Days  
Heating Degree Days 0 0  
Month to date heating degree days 0 0  
Since 1 June heating degree days 6 19  
Since 1 July heating degree days 0 2  
Cooling Degree Days 8 9  
Month to date cooling degree days 8 9  
Year to date cooling degree days 702 587  
Since 1 June cooling degree days 656 526  
Growing Degree Days 23 (Base 50)    
Moisture  
Dew Point 57 °F    
Average Humidity 62    
Maximum Humidity 84    
Minimum Humidity 40    
Precipitation  
Precipitation 0.00 in 0.11 in 0.97 in (1961)
Month to date precipitation 0.00 0.11  
Year to date precipitation 24.77 21.76  
Sea Level Pressure  
Sea Level Pressure 30.18 in    
Wind  
Wind Speed 3 mph (ESE)    
Max Wind Speed 13 mph    
Max Gust Speed 18 mph    
Visibility 10 miles    
Events      
T = Trace of Precipitation, MM = Missing Value Source: NWS Daily Summary

Daily Weather History Graph

Daily Weather History Graph

Search for Another Location

Airport or City:

Astronomy

Aug. 01, 2019 Rise Set
Actual Time 6:00 AM CDT 8:24 PM CDT
Civil Twilight 5:29 AM CDT 8:55 PM CDT
Nautical Twilight 4:50 AM CDT 9:33 PM CDT
Astronomical Twilight 4:06 AM CDT 10:16 PM CDT
Moon 6:25 AM CDT (8/1) 9:11 PM CDT (8/1)
Length of Visible Light 15h 26m
Length of Day
14h 23m
New Moon, 1% of the Moon is Illuminated
Aug 1
New Moon
Aug 7
First Quarter
Aug 15
Full
Aug 23
Last Quarter
Aug 30
New

Hourly Weather History & Observations

Time (CDT) Temp. Heat Index Dew Point Humidity Pressure Visibility Wind Dir Wind Speed Gust Speed Precip Events Conditions
12:52 AM 68.0 °F - 57.0 °F 68% 30.15 in 10.0 mi Calm Calm - N/A   Clear
1:52 AM 64.9 °F - 57.9 °F 78% 30.17 in 10.0 mi Calm Calm - N/A   Clear
2:52 AM 63.0 °F - 57.0 °F 81% 30.16 in 10.0 mi Calm Calm - N/A   Clear
3:52 AM 62.1 °F - 57.0 °F 84% 30.17 in 10.0 mi Calm Calm - N/A   Clear
4:52 AM 63.0 °F - 57.9 °F 84% 30.17 in 10.0 mi Calm Calm - N/A   Clear
5:52 AM 63.0 °F - 57.0 °F 81% 30.19 in 10.0 mi Calm Calm - N/A   Clear
6:52 AM 63.0 °F - 57.9 °F 84% 30.19 in 10.0 mi SSE 3.5 mph - N/A   Clear
7:52 AM 66.9 °F - 59.0 °F 76% 30.21 in 10.0 mi SE 3.5 mph - N/A   Clear
8:52 AM 71.1 °F - 57.0 °F 61% 30.22 in 10.0 mi SE 5.8 mph - N/A   Clear
9:52 AM 75.0 °F - 57.0 °F 53% 30.21 in 10.0 mi East 5.8 mph - N/A   Clear
10:52 AM 78.1 °F - 55.9 °F 46% 30.22 in 10.0 mi Variable 4.6 mph - N/A   Clear
11:52 AM 80.1 °F 80.2 °F 55.9 °F 43% 30.21 in 10.0 mi Variable 3.5 mph - N/A   Clear
12:52 PM 81.0 °F 80.8 °F 55.9 °F 42% 30.21 in 10.0 mi East 8.1 mph - N/A   Clear
1:52 PM 82.9 °F 82.1 °F 55.9 °F 39% 30.20 in 10.0 mi Variable 6.9 mph - N/A   Clear
2:52 PM 82.9 °F 82.4 °F 57.0 °F 41% 30.18 in 10.0 mi East 6.9 mph - N/A   Partly Cloudy
3:52 PM 82.9 °F 82.1 °F 55.9 °F 39% 30.16 in 10.0 mi Calm Calm - N/A   Clear
4:52 PM 84.0 °F 83.5 °F 57.9 °F 41% 30.15 in 10.0 mi ESE 10.4 mph - N/A   Clear
5:52 PM 82.9 °F 82.4 °F 57.0 °F 41% 30.14 in 10.0 mi NE 9.2 mph - N/A   Clear
6:52 PM 81.0 °F 80.8 °F 55.9 °F 42% 30.14 in 10.0 mi ESE 5.8 mph - N/A   Clear
7:52 PM 78.1 °F - 57.0 °F 48% 30.14 in 10.0 mi Calm Calm - N/A   Clear
8:52 PM 75.0 °F - 57.9 °F 55% 30.14 in 10.0 mi East 3.5 mph - N/A   Clear
9:52 PM 71.1 °F - 59.0 °F 66% 30.16 in 10.0 mi Calm Calm - N/A   Clear
10:52 PM 66.9 °F - 59.0 °F 76% 30.17 in 10.0 mi Calm Calm - N/A   Clear
11:52 PM 68.0 °F - 59.0 °F 73% 30.17 in 10.0 mi Calm Calm - N/A   Clear